DW5010 Weather Reports


Display with metric or nautical units.
time (UTC)temp
F
wind
direction
speed
MPH
gust
MPH
rain 1hr
in
rain 24hr
in
rain mn
in
humidity
%
barometer
mb
20260902215015 88 219 3.0 10.0 0.00 0.01 0.00 64 1011.9
20260902214540 88 239 4.0 9.0 0.00 0.01 0.00 64 1011.9
20260902214019 88 245 5.0 9.0 0.00 0.01 0.00 62 1012.1
20260902213520 88 252 3.0 10.0 0.00 0.01 0.00 62 1012.2
20260902213040 89 207 4.0 10.0 0.00 0.01 0.00 61 1012.0
20260902212519 89 246 2.0 7.0 0.00 0.01 0.00 61 1011.9
20260902212019 89 250 4.0 8.0 0.00 0.01 0.00 61 1011.8
20260902211539 89 252 3.0 13.0 0.00 0.01 0.00 61 1011.9
20260902211020 89 273 5.0 13.0 0.00 0.01 0.00 61 1011.9
20260902210518 89 232 5.0 10.0 0.00 0.01 0.00 61 1011.9
20260902210046 89 169 4.0 10.0 0.00 0.01 0.00 61 1012.0
20260902205515 89 227 4.0 11.0 0.00 0.06 0.00 59 1012.1
20260902205019 89 225 5.0 11.0 0.00 0.06 0.00 60 1012.1
20260902204547 90 243 4.0 8.0 0.00 0.06 0.00 63 1012.0
20260902204017 90 250 4.0 9.0 0.00 0.06 0.00 64 1011.9
20260902203519 89 230 3.0 9.0 0.00 0.06 0.00 65 1011.8
20260902203043 89 171 5.0 9.0 0.00 0.06 0.00 64 1011.8
20260902202517 89 222 2.0 9.0 0.00 0.06 0.00 66 1011.9
20260902202020 89 277 5.0 9.0 0.00 0.06 0.00 64 1012.0
20260902201545 89 179 3.0 9.0 0.00 0.06 0.00 65 1011.9
20260902201015 89 212 2.0 8.0 0.00 0.06 0.00 64 1011.9
20260902200518 89 194 3.0 8.0 0.00 0.06 0.00 64 1012.0
20260902200041 89 185 4.0 8.0 0.00 0.06 0.00 65 1012.0
20260902195516 89 157 4.0 9.0 0.00 0.06 0.00 66 1012.2
20260902195018 89 191 2.0 9.0 0.00 0.06 0.00 66 1012.2
20260902194536 89 260 4.0 9.0 0.00 0.06 0.00 65 1012.3
20260902194018 89 206 5.0 12.0 0.00 0.06 0.00 64 1012.3
20260902193521 89 180 4.0 12.0 0.00 0.06 0.00 63 1012.2
20260902193044 89 241 6.0 12.0 0.00 0.06 0.00 63 1012.2
20260902192516 89 188 3.0 8.0 0.00 0.06 0.00 65 1012.4
20260902192019 89 324 2.0 6.0 0.00 0.06 0.00 68 1012.5
20260902191534 89 224 2.0 6.0 0.00 0.06 0.00 67 1012.4
20260902191019 89 194 1.0 6.0 0.00 0.06 0.00 68 1012.4
20260902190517 89 219 1.0 7.0 0.00 0.06 0.00 67 1012.5
20260902190040 88 229 4.0 7.0 0.00 0.06 0.00 68 1012.5
20260902185521 88 162 2.0 7.0 0.00 0.06 0.00 70 1012.5
20260902185018 87 0 1.0 8.0 0.00 0.06 0.00 70 1012.8
20260902184544 87 225 4.0 8.0 0.00 0.06 0.00 69 1012.7
20260902184017 87 217 3.0 7.0 0.00 0.06 0.00 68 1012.6
20260902183520 87 190 2.0 7.0 0.00 0.06 0.00 68 1012.7
20260902183042 87 192 1.0 5.0 0.00 0.06 0.00 69 1012.8
20260902182517 87 311 3.0 6.0 0.00 0.06 0.00 68 1012.8
20260902182016 87 184 2.0 7.0 0.00 0.06 0.00 66 1012.8
20260902181534 87 233 2.0 7.0 0.00 0.06 0.00 67 1012.9
20260902181118 87 182 3.0 6.0 0.00 0.06 0.00 67 1012.9
20260902180519 86 177 2.0 6.0 0.00 0.06 0.00 67 1013.0
20260902180040 86 217 2.0 7.0 0.00 0.06 0.00 66 1012.8
20260902175521 86 0 0.0 7.0 0.00 0.06 0.00 67 1013.0
20260902175021 86 193 2.0 5.0 0.00 0.06 0.00 65 1013.1
20260902174539 86 256 2.0 4.0 0.00 0.06 0.00 66 1013.2
20260902174021 86 233 2.0 6.0 0.00 0.06 0.00 66 1013.2
20260902173520 86 174 1.0 6.0 0.00 0.06 0.00 68 1013.1
20260902173038 86 266 0.0 5.0 0.00 0.06 0.00 64 1013.3
20260902172521 86 0 1.0 5.0 0.00 0.06 0.00 64 1013.2
20260902172016 87 249 1.0 5.0 0.00 0.06 0.00 64 1013.2
20260902171551 86 209 2.0 5.0 0.00 0.06 0.00 65 1013.3
20260902171021 86 173 2.0 5.0 0.00 0.06 0.00 66 1013.3
20260902170520 86 123 2.0 5.0 0.00 0.06 0.00 65 1013.4
20260902170039 86 82 1.0 5.0 0.00 0.06 0.00 63 1013.3
20260902165517 86 194 1.0 4.0 0.00 0.06 0.00 64 1013.2
20260902165019 86 211 1.0 4.0 0.00 0.06 0.00 65 1013.4
20260902164537 85 0 1.0 4.0 0.00 0.06 0.00 66 1013.5
20260902164018 85 212 1.0 4.0 0.00 0.06 0.00 67 1013.5
20260902163516 84 302 0.0 4.0 0.00 0.06 0.00 68 1013.4
20260902163040 84 214 0.0 4.0 0.00 0.06 0.00 68 1013.7
20260902162515 84 279 1.0 6.0 0.00 0.06 0.00 70 1013.6
20260902162021 84 220 3.0 6.0 0.00 0.06 0.00 67 1013.4
20260902161540 84 0 1.0 6.0 0.00 0.06 0.00 68 1013.2
20260902161018 83 0 1.0 7.0 0.00 0.06 0.00 69 1013.0
20260902160517 83 115 1.0 7.0 0.00 0.06 0.00 68 1012.9
20260902160036 83 129 3.0 7.0 0.00 0.06 0.00 68 1012.9
20260902155517 83 125 2.0 6.0 0.00 0.06 0.00 70 1013.0
20260902155019 82 91 2.0 6.0 0.00 0.06 0.00 69 1013.1
20260902154534 82 63 1.0 4.0 0.00 0.06 0.00 71 1013.1
20260902154018 81 108 1.0 4.0 0.00 0.06 0.00 71 1013.4
20260902153519 81 93 1.0 4.0 0.00 0.06 0.00 71 1013.4
20260902153047 80 123 2.0 4.0 0.00 0.06 0.00 71 1013.4
20260902152518 80 94 1.0 4.0 0.00 0.06 0.00 73 1013.4
20260902152018 80 0 0.0 3.0 0.00 0.06 0.00 72 1013.5
20260902151540 80 0 1.0 3.0 0.00 0.06 0.00 71 1013.6
20260902151022 80 90 1.0 3.0 0.00 0.06 0.00 71 1013.7
20260902150517 79 121 1.0 4.0 0.00 0.06 0.00 74 1013.6
20260902150040 79 0 0.0 4.0 0.00 0.06 0.00 74 1013.6
20260902145517 78 78 0.0 4.0 0.00 0.06 0.00 73 1013.6
20260902145018 78 132 1.0 4.0 0.00 0.06 0.00 73 1013.6
20260902144533 78 136 1.0 4.0 0.00 0.06 0.00 75 1013.7
20260902144016 77 109 1.0 6.0 0.00 0.06 0.00 75 1013.7
20260902143516 77 109 1.0 6.0 0.00 0.06 0.00 75 1013.7
20260902143035 77 0 2.0 6.0 0.00 0.06 0.00 74 1013.7
20260902142518 77 130 1.0 4.0 0.00 0.06 0.00 76 1013.7
20260902142021 76 117 2.0 4.0 0.00 0.06 0.00 76 1013.8
20260902141537 76 103 1.0 3.0 0.00 0.06 0.00 77 1013.8
20260902141017 76 348 0.0 3.0 0.00 0.06 0.00 80 1014.0
20260902140520 76 134 1.0 3.0 0.00 0.06 0.00 76 1014.0
20260902140035 76 0 0.0 4.0 0.00 0.06 0.00 76 1014.1
20260902135519 76 0 1.0 5.0 0.00 0.06 0.00 75 1014.2
20260902135018 76 115 0.0 5.0 0.00 0.06 0.00 76 1013.9
20260902134542 76 39 1.0 5.0 0.00 0.06 0.00 76 1013.8
20260902134018 76 67 0.0 4.0 0.00 0.06 0.00 77 1014.0
20260902133516 75 0 1.0 5.0 0.00 0.06 0.00 78 1014.0
20260902133037 75 78 1.0 5.0 0.00 0.06 0.00 78 1014.1
20260902132520 75 0 0.0 7.0 0.00 0.06 0.00 79 1014.0
20260902132018 75 84 1.0 7.0 0.00 0.06 0.00 78 1014.1
20260902131543 75 343 0.0 5.0 0.00 0.06 0.00 78 1014.4
20260902131019 75 80 2.0 5.0 0.00 0.06 0.00 79 1014.3
20260902130518 75 64 2.0 5.0 0.00 0.06 0.00 79 1014.5
20260902130041 75 5 0.0 2.0 0.00 0.06 0.00 81 1014.4
20260902125524 75 0 0.0 2.0 0.00 0.06 0.00 81 1014.4
20260902125016 74 0 0.0 2.0 0.00 0.06 0.00 82 1014.4
20260902124535 74 0 0.0 9.0 0.00 0.06 0.00 83 1014.4
20260902124019 74 99 1.0 9.0 0.00 0.06 0.00 83 1014.4
20260902123516 74 355 1.0 9.0 0.00 0.06 0.00 87 1014.5
20260902123040 73 0 1.0 9.0 0.00 0.06 0.00 87 1014.3
20260902122519 73 9 2.0 9.0 0.00 0.06 0.00 90 1014.6
20260902122020 73 0 2.0 9.0 0.00 0.06 0.00 91 1014.4
20260902121536 72 5 2.0 10.0 0.00 0.06 0.00 93 1014.5
20260902121020 73 325 6.0 10.0 0.00 0.06 0.00 94 1014.5
20260902120519 73 24 1.0 4.0 0.00 0.06 0.00 94 1014.3
20260902120035 73 315 1.0 3.0 0.00 0.06 0.00 95 1014.4
20260902115519 73 0 0.0 4.0 0.00 0.06 0.00 95 1014.3
20260902115018 73 360 0.0 4.0 0.00 0.06 0.00 95 1014.3
20260902114542 73 299 1.0 8.0 0.00 0.06 0.00 95 1014.3
20260902114018 72 267 2.0 8.0 0.00 0.06 0.00 95 1014.1
20260902113520 72 355 2.0 6.0 0.00 0.06 0.00 95 1014.1
20260902113038 72 0 0.0 0.0 0.00 0.06 0.00 95 1013.7
20260902112516 72 0 0.0 0.0 0.00 0.06 0.00 95 1013.8
20260902112018 72 0 0.0 0.0 0.00 0.06 0.00 95 1013.1
20260902111537 72 0 0.0 0.0 0.00 0.06 0.00 95 1012.9
20260902111019 72 0 0.0 0.0 0.00 0.06 0.00 95 1013.1
20260902110523 72 0 0.0 0.0 0.00 0.06 0.00 95 1013.0
20260902110042 72 0 0.0 0.0 0.00 0.06 0.00 95 1013.1
20260902105518 72 0 0.0 0.0 0.00 0.06 0.00 95 1013.0
20260902105016 72 0 0.0 0.0 0.00 0.06 0.00 95 1013.2
20260902104534 72 0 0.0 0.0 0.00 0.06 0.00 94 1013.2
20260902104016 72 0 0.0 0.0 0.00 0.06 0.00 94 1013.2
20260902103515 72 0 0.0 0.0 0.00 0.06 0.00 94 1013.2
20260902103037 73 0 0.0 0.0 0.00 0.06 0.00 94 1013.1
20260902102520 73 0 0.0 0.0 0.00 0.06 0.00 95 1013.1
20260902102017 73 0 0.0 2.0 0.00 0.06 0.00 94 1013.2
20260902101536 73 0 1.0 2.0 0.00 0.06 0.00 94 1013.3
20260902101018 73 0 0.0 2.0 0.00 0.06 0.00 94 1013.3
20260902100518 73 0 0.0 2.0 0.00 0.06 0.00 95 1013.4
20260902100034 73 138 0.0 2.0 0.00 0.06 0.00 95 1013.3
20260902095518 73 0 0.0 1.0 0.00 0.06 0.00 95 1013.5
20260902095016 73 0 0.0 2.0 0.00 0.06 0.00 95 1013.5
20260902094537 73 0 0.0 5.0 0.00 0.06 0.00 95 1013.7
20260902094015 73 138 0.0 5.0 0.00 0.06 0.00 95 1013.5
20260902093518 73 172 1.0 4.0 0.00 0.06 0.00 95 1013.6
20260902093039 73 0 0.0 0.0 0.00 0.06 0.00 94 1013.9
20260902092519 73 0 0.0 0.0 0.00 0.06 0.00 94 1013.5
20260902092016 73 0 0.0 0.0 0.00 0.06 0.00 94 1013.5
20260902091535 73 0 0.0 0.0 0.00 0.06 0.00 94 1013.4
20260902091019 73 0 0.0 0.0 0.00 0.06 0.00 94 1013.4
20260902090519 73 0 0.0 0.0 0.00 0.06 0.00 94 1013.4
20260902090038 73 0 0.0 0.0 0.00 0.06 0.00 94 1013.3
20260902085519 73 0 0.0 0.0 0.00 0.06 0.00 94 1013.3
20260902085015 73 0 0.0 0.0 0.00 0.06 0.00 94 1013.2
20260902084536 73 0 0.0 0.0 0.00 0.06 0.00 94 1013.2
20260902084018 73 0 0.0 0.0 0.00 0.06 0.00 94 1013.2
20260902083521 73 0 0.0 0.0 0.00 0.06 0.00 94 1013.2
20260902083035 73 0 0.0 0.0 0.00 0.06 0.00 93 1013.2
20260902082516 73 0 0.0 0.0 0.00 0.06 0.00 93 1013.2
20260902082016 73 0 0.0 0.0 0.00 0.06 0.00 93 1013.2
20260902081535 73 0 0.0 0.0 0.00 0.06 0.00 93 1013.1
20260902081016 74 0 0.0 0.0 0.00 0.06 0.00 93 1013.0
20260902080518 74 0 0.0 0.0 0.00 0.06 0.00 93 1013.0
20260902080034 74 0 0.0 0.0 0.00 0.06 0.00 93 1013.0
20260902075518 74 0 0.0 1.0 0.00 0.06 0.00 93 1013.0
20260902075017 74 0 0.0 1.0 0.00 0.06 0.00 93 1013.1
20260902074537 74 0 0.0 2.0 0.00 0.06 0.00 93 1013.2
20260902074019 75 0 0.0 2.0 0.00 0.06 0.00 93 1013.2
20260902073518 75 0 0.0 2.0 0.00 0.06 0.00 93 1013.1
20260902073039 75 0 0.0 0.0 0.00 0.06 0.00 93 1013.1
20260902072521 75 0 0.0 0.0 0.00 0.06 0.00 93 1013.2
20260902072018 75 0 0.0 1.0 0.00 0.06 0.00 93 1013.1
20260902071534 75 0 0.0 6.0 0.00 0.06 0.00 93 1013.1
20260902071019 76 0 0.0 9.0 0.00 0.06 0.00 93 1013.2
20260902070518 75 220 2.0 9.0 0.00 0.06 0.00 94 1013.2
20260902070037 75 5 5.0 9.0 0.00 0.06 0.00 93 1013.3
20260902065516 75 0 0.0 0.0 0.00 0.06 0.00 93 1013.2
20260902065021 76 0 0.0 0.0 0.00 0.06 0.00 93 1013.0
20260902064538 76 0 0.0 0.0 0.00 0.06 0.00 93 1012.9
20260902064018 76 0 0.0 0.0 0.00 0.06 0.00 93 1013.0
20260902063519 76 0 0.0 0.0 0.00 0.06 0.00 93 1013.0
20260902063034 76 0 0.0 0.0 0.00 0.06 0.00 93 1012.8
20260902062519 76 0 0.0 0.0 0.00 0.06 0.00 93 1012.9
20260902062019 76 0 0.0 0.0 0.00 0.06 0.00 93 1013.1
20260902061016 76 0 0.0 0.0 0.00 0.06 0.00 93 1013.3
20260902060516 76 0 0.0 0.0 0.00 0.06 0.00 93 1013.4
20260902060040 76 0 0.0 0.0 0.00 0.06 0.00 93 1013.5
20260902055517 76 0 0.0 0.0 0.00 0.06 0.00 93 1013.4
20260902055018 76 0 0.0 0.0 0.00 0.06 0.00 93 1013.4
20260902054544 76 0 0.0 0.0 0.00 0.06 0.00 93 1013.4
20260902054015 76 0 0.0 0.0 0.00 0.06 0.00 93 1013.5
20260902053519 76 0 0.0 0.0 0.00 0.06 0.00 93 1013.4
20260902053038 76 0 0.0 0.0 0.00 0.06 0.00 93 1013.3
20260902052519 76 0 0.0 0.0 0.00 0.06 0.00 92 1013.2
20260902052018 76 0 0.0 0.0 0.00 0.06 0.00 92 1013.2
20260902051537 76 0 0.0 0.0 0.00 0.06 0.00 92 1013.2
20260902051019 76 0 0.0 0.0 0.00 0.06 0.00 91 1013.1
20260902050516 76 0 0.0 0.0 0.00 0.06 0.00 91 1013.0
20260902050034 77 0 0.0 0.0 0.00 0.06 0.00 91 1012.8
20260902045515 77 0 0.0 0.0 0.00 0.06 0.06 91 1012.8
20260902045019 77 0 0.0 0.0 0.00 0.06 0.06 91 1013.0
20260902044539 77 0 0.0 0.0 0.00 0.06 0.06 91 1013.2
20260902044017 77 0 0.0 0.0 0.00 0.06 0.06 91 1013.2
20260902043517 77 0 0.0 0.0 0.00 0.06 0.06 91 1013.2
20260902043043 77 0 0.0 0.0 0.00 0.06 0.06 91 1013.1
20260902042520 77 0 0.0 0.0 0.00 0.06 0.06 92 1013.0
20260902042020 77 0 0.0 3.0 0.00 0.06 0.06 92 1012.9
20260902041539 77 0 1.0 3.0 0.00 0.06 0.06 92 1012.9
20260902041020 77 225 0.0 3.0 0.00 0.06 0.06 92 1013.0
20260902040518 77 192 0.0 3.0 0.00 0.06 0.06 92 1012.9
20260902040045 77 195 0.0 2.0 0.00 0.06 0.06 92 1012.9
20260902035516 76 0 0.0 0.0 0.00 0.06 0.06 92 1012.8
20260902035015 76 0 0.0 0.0 0.00 0.06 0.06 92 1012.7
20260902034537 76 0 0.0 0.0 0.00 0.06 0.06 91 1012.8
20260902034015 76 0 0.0 0.0 0.00 0.06 0.06 91 1012.7
20260902033518 76 0 0.0 0.0 0.00 0.06 0.06 91 1012.7
20260902033035 76 0 0.0 0.0 0.00 0.06 0.06 91 1012.8
20260902032520 76 0 0.0 0.0 0.00 0.06 0.06 91 1012.8
20260902032018 77 0 0.0 0.0 0.00 0.06 0.06 90 1012.9
20260902031540 77 0 0.0 0.0 0.00 0.06 0.06 90 1013.0
20260902031016 77 0 0.0 0.0 0.00 0.06 0.06 90 1013.1
20260902030518 77 0 0.0 0.0 0.00 0.06 0.06 90 1013.1
20260902030036 77 0 0.0 0.0 0.00 0.06 0.06 90 1013.1
20260902025516 77 0 0.0 0.0 0.00 0.06 0.06 90 1013.2
20260902025016 77 0 0.0 0.0 0.00 0.06 0.06 90 1013.0
20260902024539 77 0 0.0 0.0 0.00 0.06 0.06 90 1013.1
20260902024021 77 0 0.0 0.0 0.00 0.06 0.06 90 1013.1
20260902023519 77 0 0.0 0.0 0.00 0.06 0.06 90 1013.2
20260902023041 77 0 0.0 0.0 0.00 0.06 0.06 90 1013.2
20260902022517 77 0 0.0 0.0 0.00 0.06 0.06 90 1013.2
20260902022019 77 0 0.0 0.0 0.00 0.06 0.06 89 1013.4
20260902021534 77 0 0.0 0.0 0.00 0.06 0.06 89 1013.5
20260902021018 77 0 0.0 0.0 0.00 0.06 0.06 89 1013.6
20260902020516 77 0 0.0 0.0 0.00 0.06 0.06 89 1013.6
20260902020039 77 0 0.0 0.0 0.00 0.06 0.06 89 1013.4
20260902015520 77 0 0.0 0.0 0.00 0.06 0.06 89 1013.5
20260902015015 77 0 0.0 0.0 0.00 0.06 0.06 89 1013.5
20260902014535 77 0 0.0 0.0 0.00 0.06 0.06 89 1013.4
20260902014022 77 0 0.0 0.0 0.00 0.06 0.06 88 1013.3
20260902013520 77 0 0.0 0.0 0.00 0.06 0.06 88 1013.2
20260902013038 77 0 0.0 0.0 0.00 0.06 0.06 88 1013.1
20260902012523 77 0 0.0 0.0 0.00 0.06 0.06 88 1013.2
20260902012017 77 0 0.0 0.0 0.00 0.06 0.06 88 1013.0
20260902011535 77 0 0.0 0.0 0.00 0.06 0.06 87 1012.9
20260902011018 78 0 0.0 0.0 0.00 0.06 0.06 87 1012.9
20260902010517 78 0 0.0 0.0 0.00 0.06 0.06 87 1013.0
20260902010035 78 0 0.0 0.0 0.00 0.06 0.06 87 1013.0
20260902005518 78 0 0.0 0.0 0.00 0.06 0.06 86 1012.9
20260902005021 78 0 0.0 0.0 0.00 0.06 0.06 86 1012.9
20260902004539 78 0 0.0 0.0 0.00 0.06 0.06 85 1012.9
20260902004021 79 0 0.0 0.0 0.00 0.06 0.06 85 1012.8
20260902003519 79 0 0.0 0.0 0.00 0.06 0.06 85 1012.9
20260902003041 79 0 0.0 0.0 0.00 0.06 0.06 84 1012.8
20260902002518 79 0 0.0 2.0 0.00 0.06 0.06 84 1012.8
20260902002019 79 0 0.0 2.0 0.00 0.06 0.06 84 1012.8
20260902001553 79 0 0.0 0.0 0.00 0.06 0.06 84 1012.8
20260902001019 79 0 0.0 0.0 0.00 0.06 0.06 84 1012.8
20260902000516 79 0 0.0 0.0 0.00 0.06 0.06 84 1012.7
20260902000040 79 0 0.0 0.0 0.00 0.06 0.06 84 1012.7
20260901235518 79 0 0.0 0.0 0.00 0.06 0.06 84 1012.7
20260901235020 80 0 0.0 0.0 0.00 0.06 0.06 84 1012.8
20260901234534 80 0 0.0 0.0 0.00 0.06 0.06 84 1012.9
20260901234024 80 0 0.0 0.0 0.00 0.06 0.06 84 1012.8
20260901233516 80 0 0.0 0.0 0.00 0.06 0.06 84 1012.8
20260901233038 80 0 0.0 0.0 0.00 0.06 0.06 84 1012.7
20260901232516 80 0 0.0 0.0 0.00 0.06 0.06 83 1012.5
20260901232016 80 0 0.0 2.0 0.00 0.06 0.06 82 1012.4
20260901231535 80 0 0.0 2.0 0.00 0.06 0.06 82 1012.2
20260901231018 80 0 0.0 2.0 0.00 0.06 0.06 82 1012.0
20260901230516 80 143 1.0 3.0 0.00 0.06 0.06 81 1012.1
20260901230036 80 143 0.0 3.0 0.00 0.06 0.06 81 1012.4
20260901225518 80 143 1.0 3.0 0.00 0.06 0.06 80 1012.5
20260901225021 80 173 1.0 4.0 0.00 0.06 0.06 80 1012.7
20260901224534 80 177 1.0 4.0 0.00 0.06 0.06 80 1012.7
20260901224023 80 0 0.0 7.0 0.00 0.06 0.06 80 1012.8
20260901223520 80 0 1.0 7.0 0.00 0.06 0.06 79 1013.0
20260901223041 80 275 2.0 7.0 0.00 0.06 0.06 79 1013.2
20260901222516 80 265 1.0 5.0 0.00 0.06 0.06 81 1013.1
20260901222018 79 255 1.0 5.0 0.01 0.06 0.06 83 1013.0
20260901221544 79 247 0.0 5.0 0.01 0.06 0.06 83 1013.0
20260901221016 79 290 1.0 6.0 0.01 0.06 0.06 82 1013.2
20260901220515 79 243 1.0 6.0 0.01 0.06 0.06 81 1013.1
20260901220041 79 0 1.0 6.0 0.01 0.06 0.06 79 1013.1
20260901215516 79 245 2.0 6.0 0.01 0.06 0.06 78 1013.1